Location: Unspecified
(0.0000°N, 0.0000°E)
Time: 08:27:51
(UTC+02:00)

Orbus 21S - Visible Passes

Search period start: 26 July 2016 00:00
Search period end: 05 August 2016 00:00
Orbit: 329 x 33088 km, 24.1° (Epoch: 24 July)

Date Brightness Start Highest point End Pass type
(mag) Time Alt. Az. Time Alt. Az. Time Alt. Az.
27 Jul 6.8 16:02:22 10° WSW 18:37:20 61° SW 00:54:52 27° NNE visible
29 Jul 6.8 16:36:48 10° WSW 18:52:41 53° SW 01:24:03 30° N visible
30 Jul 6.4 11:35:18 10° WSW 18:57:01 66° E 20:35:23 10° ENE visible
31 Jul 4.2 06:47:46 10° NNW 06:49:26 18° NE 06:51:52 10° E visible
31 Jul 6.8 17:12:29 10° WSW 19:15:15 45° WSW 01:53:15 28° NNW visible
01 Aug 6.8 12:06:37 10° WSW 19:27:23 77° E 21:08:10 10° ENE visible
02 Aug 3.2 07:17:52 10° NW 07:20:07 44° NNE 07:25:24 10° ESE visible
02 Aug 7.0 17:50:05 10° WSW 19:40:45 37° WSW 02:22:27 22° NNW visible
03 Aug 7.2 12:38:08 10° WSW 19:49:12 88° ENE 21:40:21 10° ENE visible
04 Aug 10.3 18:30:55 10° WSW 20:07:30 28° WSW 23:35:48 10° W visible
